{"data":{"norad_id":63167,"intl_designator":"2025-046J","name":"QIANFAN-81","alt_names":[],"object_type":"PAYLOAD","status":"ACTIVE","operator":null,"country":"PRC","launch_date":"2025-03-11","launch_site_code":"WSC","launch_vehicle":null,"mission":null,"orbit_class":"UNKNOWN","rcs_meters":null,"size_class":null,"mass_kg":null,"dimensions":null,"purposes":[],"wikipedia_slug":null,"has_3d_model":false,"image_url":null,"decayed_at":null,"tle_current":{"epoch":"2026-05-25T04:05:21.192288Z","epoch_age_seconds":60409,"freshness":"FRESH","line1":"1 63167U 25046J   26145.17038417  .00000005  00000+0 -10297-4 0  9997","line2":"2 63167  88.9687 302.9317 0015049  17.0914 343.0741 13.51013402 69554","mean_motion":13.51013402,"eccentricity":0.0015049,"inclination_deg":88.9687,"raan_deg":302.9317,"arg_perigee_deg":17.0914,"mean_anomaly_deg":343.0741,"bstar":-1.0297e-5,"rev_number":6955,"period_min":106.5866554594,"perigee_km":1057.3258450397,"apogee_km":1079.7388304124,"semimajor_km":7446.6693377261,"source":"CELESTRAK","updated_at":"2026-05-25T13:38:03.540128Z"}}}